| time (UTC) | temp F | wind direction | speed MPH | gust MPH | rain 1hr in | rain 24hr in | rain mn in | humidity % | barometer mb |
| 20260504201912 | 76 | 5 | 4.0 | 11.0 | 0.00 | 0.00 | 0.00 | 33 | 1010.0 |
| 20260504201403 | 76 | 5 | 3.0 | 11.0 | 0.00 | 0.00 | 0.00 | 35 | 1010.1 |
| 20260504200851 | 76 | 5 | 4.0 | 10.0 | 0.00 | 0.00 | 0.00 | 34 | 1010.1 |
| 20260504200342 | 76 | 5 | 2.0 | 10.0 | 0.00 | 0.00 | 0.00 | 34 | 1010.2 |
| 20260504195849 | 76 | 5 | 3.0 | 9.0 | 0.00 | 0.00 | 0.00 | 35 | 1010.3 |
| 20260504195342 | 76 | 5 | 4.0 | 12.0 | 0.00 | 0.00 | 0.00 | 35 | 1010.4 |
| 20260504194855 | 75 | 5 | 5.0 | 13.0 | 0.00 | 0.00 | 0.00 | 35 | 1010.5 |
| 20260504194347 | 75 | 5 | 4.0 | 13.0 | 0.00 | 0.00 | 0.00 | 35 | 1010.6 |
| 20260504193918 | 75 | 5 | 3.0 | 10.0 | 0.00 | 0.00 | 0.00 | 35 | 1010.7 |
| 20260504193347 | 74 | 5 | 2.0 | 13.0 | 0.00 | 0.00 | 0.00 | 37 | 1010.8 |
| 20260504192912 | 73 | 5 | 4.0 | 15.0 | 0.00 | 0.00 | 0.00 | 36 | 1010.9 |
| 20260504192342 | 73 | 5 | 3.0 | 16.0 | 0.00 | 0.00 | 0.00 | 36 | 1010.9 |
| 20260504191849 | 74 | 5 | 4.0 | 15.0 | 0.00 | 0.00 | 0.00 | 36 | 1010.8 |
| 20260504191340 | 74 | 5 | 7.0 | 15.0 | 0.00 | 0.00 | 0.00 | 35 | 1011.1 |
| 20260504190850 | 74 | 5 | 6.0 | 11.0 | 0.00 | 0.00 | 0.00 | 35 | 1011.1 |
| 20260504190357 | 74 | 5 | 3.0 | 17.0 | 0.00 | 0.00 | 0.00 | 37 | 1011.2 |
| 20260504185839 | 74 | 5 | 8.0 | 17.0 | 0.00 | 0.00 | 0.00 | 35 | 1011.4 |
| 20260504185347 | 74 | 5 | 2.0 | 16.0 | 0.00 | 0.00 | 0.00 | 36 | 1011.3 |
| 20260504184916 | 74 | 5 | 6.0 | 16.0 | 0.00 | 0.00 | 0.00 | 36 | 1011.4 |
| 20260504184346 | 74 | 5 | 5.0 | 11.0 | 0.00 | 0.00 | 0.00 | 37 | 1011.4 |
| 20260504183855 | 74 | 5 | 4.0 | 16.0 | 0.00 | 0.00 | 0.00 | 36 | 1011.5 |
| 20260504183407 | 74 | 5 | 6.0 | 12.0 | 0.00 | 0.00 | 0.00 | 36 | 1011.6 |
| 20260504182854 | 73 | 5 | 4.0 | 12.0 | 0.00 | 0.00 | 0.00 | 37 | 1011.6 |
| 20260504182344 | 72 | 5 | 2.0 | 13.0 | 0.00 | 0.00 | 0.00 | 37 | 1011.7 |
| 20260504181852 | 72 | 5 | 4.0 | 13.0 | 0.00 | 0.00 | 0.00 | 38 | 1011.7 |
| 20260504181346 | 72 | 5 | 2.0 | 11.0 | 0.00 | 0.00 | 0.00 | 37 | 1011.8 |
| 20260504180858 | 72 | 5 | 6.0 | 12.0 | 0.00 | 0.00 | 0.00 | 38 | 1011.8 |
| 20260504180406 | 72 | 5 | 6.0 | 12.0 | 0.00 | 0.00 | 0.00 | 38 | 1012.0 |
| 20260504175849 | 72 | 5 | 5.0 | 13.0 | 0.00 | 0.00 | 0.00 | 36 | 1011.9 |
| 20260504175337 | 72 | 5 | 3.0 | 13.0 | 0.00 | 0.00 | 0.00 | 37 | 1012.0 |
| 20260504174848 | 72 | 5 | 2.0 | 9.0 | 0.00 | 0.00 | 0.00 | 38 | 1012.0 |
| 20260504174359 | 71 | 5 | 2.0 | 11.0 | 0.00 | 0.00 | 0.00 | 40 | 1012.1 |
| 20260504173843 | 71 | 5 | 5.0 | 11.0 | 0.00 | 0.00 | 0.00 | 38 | 1012.1 |
| 20260504173353 | 71 | 5 | 3.0 | 10.0 | 0.00 | 0.00 | 0.00 | 37 | 1012.2 |
| 20260504172856 | 71 | 5 | 4.0 | 10.0 | 0.00 | 0.00 | 0.00 | 38 | 1012.3 |
| 20260504172343 | 71 | 5 | 2.0 | 10.0 | 0.00 | 0.00 | 0.00 | 38 | 1012.4 |
| 20260504171855 | 70 | 5 | 4.0 | 10.0 | 0.00 | 0.00 | 0.00 | 38 | 1012.5 |
| 20260504171342 | 70 | 5 | 5.0 | 10.0 | 0.00 | 0.00 | 0.00 | 38 | 1012.6 |
| 20260504170849 | 70 | 5 | 3.0 | 10.0 | 0.00 | 0.00 | 0.00 | 38 | 1012.6 |
| 20260504170402 | 70 | 5 | 5.0 | 10.0 | 0.00 | 0.00 | 0.00 | 38 | 1012.8 |
| 20260504160353 | 67 | 5 | 3.0 | 9.0 | 0.00 | 0.00 | 0.00 | 41 | 1013.5 |
| 20260504150846 | 66 | 5 | 0.0 | 10.0 | 0.00 | 0.00 | 0.00 | 41 | 1014.0 |
| 20260504150353 | 66 | 5 | 3.0 | 10.0 | 0.00 | 0.00 | 0.00 | 40 | 1014.1 |
| 20260504140850 | 62 | 5 | 5.0 | 11.0 | 0.00 | 0.00 | 0.00 | 45 | 1014.4 |
| 20260504140344 | 62 | 5 | 2.0 | 7.0 | 0.00 | 0.00 | 0.00 | 50 | 1014.4 |
| 20260504130343 | 57 | 5 | 0.0 | 7.0 | 0.00 | 0.00 | 0.00 | 52 | 1014.6 |
| 20260504110350 | 0 | 0.0 | 0.0 | 0.00 | 0.00 | 0.00 | 1014.8 | ||
| 20260504100339 | 0 | 0.0 | 0.0 | 0.00 | 0.00 | 0.00 | 1014.9 | ||
| 20260504081838 | 0 | 0.0 | 0.0 | 0.00 | 0.00 | 0.00 | 1015.4 | ||
| 20260504081352 | 0 | 0.0 | 0.0 | 0.00 | 0.00 | 0.00 | 1015.3 | ||
| 20260504080845 | 0 | 0.0 | 0.0 | 0.00 | 0.00 | 0.00 | 1015.3 | ||
| 20260504080340 | 0 | 0.0 | 0.0 | 0.00 | 0.00 | 0.00 | 1015.3 | ||
| 20260504070343 | 0 | 0.0 | 0.0 | 0.00 | 0.00 | 0.00 | 1015.4 | ||
| 20260504050343 | 0 | 0.0 | 0.0 | 0.00 | 0.00 | 0.00 | 1015.5 | ||
| 20260504045850 | 0 | 0.0 | 0.0 | 0.00 | 0.00 | 0.00 | 1015.6 | ||
| 20260504045341 | 0 | 0.0 | 0.0 | 0.00 | 0.00 | 0.00 | 1015.6 | ||
| 20260504044854 | 0 | 0.0 | 0.0 | 0.00 | 0.00 | 0.00 | 1015.5 | ||
| 20260504044408 | 0 | 0.0 | 0.0 | 0.00 | 0.00 | 0.00 | 1015.6 | ||
| 20260504043841 | 0 | 0.0 | 0.0 | 0.00 | 0.00 | 0.00 | 1015.5 | ||
| 20260504043354 | 0 | 0.0 | 0.0 | 0.00 | 0.00 | 0.00 | 1015.5 | ||
| 20260504042920 | 0 | 0.0 | 0.0 | 0.00 | 0.00 | 0.00 | 1015.5 | ||
| 20260504042348 | 0 | 0.0 | 0.0 | 0.00 | 0.00 | 0.00 | 1015.5 | ||
| 20260504041858 | 0 | 0.0 | 0.0 | 0.00 | 0.00 | 0.00 | 1015.4 | ||
| 20260504041347 | 0 | 0.0 | 0.0 | 0.00 | 0.00 | 0.00 | 1015.4 | ||
| 20260504040839 | 0 | 0.0 | 0.0 | 0.00 | 0.00 | 0.00 | 1015.3 | ||
| 20260504040350 | 0 | 0.0 | 0.0 | 0.00 | 0.00 | 0.00 | 1015.3 | ||
| 20260504035839 | 0 | 0.0 | 0.0 | 0.00 | 0.00 | 0.00 | 1015.3 | ||
| 20260504035351 | 0 | 0.0 | 0.0 | 0.00 | 0.00 | 0.00 | 1015.3 | ||
| 20260504034844 | 0 | 0.0 | 0.0 | 0.00 | 0.00 | 0.00 | 1015.2 | ||
| 20260504034338 | 0 | 0.0 | 0.0 | 0.00 | 0.00 | 0.00 | 1015.2 | ||
| 20260504033849 | 0 | 0.0 | 0.0 | 0.00 | 0.00 | 0.00 | 1015.2 | ||
| 20260504033359 | 0 | 0.0 | 0.0 | 0.00 | 0.00 | 0.00 | 1015.2 | ||
| 20260504032844 | 0 | 0.0 | 0.0 | 0.00 | 0.00 | 0.00 | 1015.2 | ||
| 20260504032351 | 0 | 0.0 | 0.0 | 0.00 | 0.00 | 0.00 | 1015.2 | ||
| 20260504031842 | 0 | 0.0 | 0.0 | 0.00 | 0.00 | 0.00 | 1015.2 | ||
| 20260504031351 | 0 | 0.0 | 0.0 | 0.00 | 0.00 | 0.00 | 1015.1 | ||
| 20260504030843 | 0 | 0.0 | 0.0 | 0.00 | 0.00 | 0.00 | 1015.0 | ||
| 20260504030355 | 0 | 0.0 | 0.0 | 0.00 | 0.00 | 0.00 | 1015.0 | ||
| 20260504025844 | 0 | 0.0 | 0.0 | 0.00 | 0.00 | 0.00 | 1015.0 | ||
| 20260504025417 | 0 | 0.0 | 0.0 | 0.00 | 0.00 | 0.00 | 1015.0 | ||
| 20260504024846 | 0 | 0.0 | 0.0 | 0.00 | 0.00 | 0.00 | 1014.9 | ||
| 20260504024356 | 0 | 0.0 | 0.0 | 0.00 | 0.00 | 0.00 | 1014.9 | ||
| 20260504023846 | 0 | 0.0 | 0.0 | 0.00 | 0.00 | 0.00 | 1014.9 | ||
| 20260504023417 | 0 | 0.0 | 0.0 | 0.00 | 0.00 | 0.00 | 1014.9 | ||
| 20260504022843 | 0 | 0.0 | 0.0 | 0.00 | 0.00 | 0.00 | 1015.0 | ||
| 20260504022351 | 0 | 0.0 | 0.0 | 0.00 | 0.00 | 0.00 | 1014.9 | ||
| 20260504021842 | 0 | 0.0 | 0.0 | 0.00 | 0.00 | 0.00 | 1015.0 | ||
| 20260504021352 | 0 | 0.0 | 0.0 | 0.00 | 0.00 | 0.00 | 1015.0 | ||
| 20260504020843 | 0 | 0.0 | 0.0 | 0.00 | 0.00 | 0.00 | 1015.0 | ||
| 20260504020356 | 0 | 0.0 | 0.0 | 0.00 | 0.00 | 0.00 | 1015.0 | ||
| 20260504015838 | 0 | 0.0 | 0.0 | 0.00 | 0.00 | 0.00 | 1015.0 | ||
| 20260504015408 | 0 | 0.0 | 0.0 | 0.00 | 0.00 | 0.00 | 1014.9 | ||
| 20260504014839 | 0 | 0.0 | 0.0 | 0.00 | 0.00 | 0.00 | 1014.9 | ||
| 20260504014349 | 0 | 0.0 | 0.0 | 0.00 | 0.00 | 0.00 | 1014.8 | ||
| 20260504013856 | 0 | 0.0 | 0.0 | 0.00 | 0.00 | 0.00 | 1014.8 | ||
| 20260504013346 | 0 | 0.0 | 0.0 | 0.00 | 0.00 | 0.00 | 1014.7 | ||
| 20260504012835 | 0 | 0.0 | 0.0 | 0.00 | 0.00 | 0.00 | 1014.7 | ||
| 20260504012349 | 0 | 0.0 | 0.0 | 0.00 | 0.00 | 0.00 | 1014.7 | ||
| 20260504011842 | 0 | 0.0 | 0.0 | 0.00 | 0.00 | 0.00 | 1014.7 | ||
| 20260504011353 | 0 | 0.0 | 0.0 | 0.00 | 0.00 | 0.00 | 1014.6 | ||
| 20260504010845 | 0 | 0.0 | 0.0 | 0.00 | 0.00 | 0.00 | 1014.5 | ||
| 20260504010417 | 0 | 0.0 | 0.0 | 0.00 | 0.00 | 0.00 | 1014.5 | ||
| 20260504005844 | 0 | 0.0 | 0.0 | 0.00 | 0.00 | 0.00 | 1014.6 | ||
| 20260504005414 | 0 | 0.0 | 0.0 | 0.00 | 0.00 | 0.00 | 1014.5 | ||
| 20260504004843 | 0 | 0.0 | 0.0 | 0.00 | 0.00 | 0.00 | 1014.5 | ||
| 20260504004414 | 0 | 0.0 | 0.0 | 0.00 | 0.00 | 0.00 | 1014.4 | ||
| 20260504003846 | 0 | 0.0 | 0.0 | 0.00 | 0.00 | 0.00 | 1014.4 | ||
| 20260504003342 | 0 | 0.0 | 0.0 | 0.00 | 0.00 | 0.00 | 1014.3 | ||
| 20260504002848 | 0 | 0.0 | 0.0 | 0.00 | 0.00 | 0.00 | 1014.3 | ||
| 20260504002354 | 0 | 0.0 | 0.0 | 0.00 | 0.00 | 0.00 | 1014.2 | ||
| 20260504001841 | 0 | 0.0 | 0.0 | 0.00 | 0.00 | 0.00 | 1014.2 | ||
| 20260504001349 | 0 | 0.0 | 0.0 | 0.00 | 0.00 | 0.00 | 1014.1 | ||
| 20260504000857 | 0 | 0.0 | 0.0 | 0.00 | 0.00 | 0.00 | 1014.1 | ||
| 20260504000349 | 0 | 0.0 | 0.0 | 0.00 | 0.00 | 0.00 | 1014.0 | ||
| 20260503235854 | 0 | 0.0 | 0.0 | 0.00 | 0.00 | 0.00 | 1013.9 | ||
| 20260503235405 | 0 | 0.0 | 0.0 | 0.00 | 0.00 | 0.00 | 1013.9 | ||
| 20260503234850 | 0 | 0.0 | 0.0 | 0.00 | 0.00 | 0.00 | 1013.9 | ||
| 20260503234359 | 0 | 0.0 | 0.0 | 0.00 | 0.00 | 0.00 | 1013.8 | ||
| 20260503233847 | 0 | 0.0 | 0.0 | 0.00 | 0.00 | 0.00 | 1013.7 | ||
| 20260503233401 | 0 | 0.0 | 0.0 | 0.00 | 0.00 | 0.00 | 1013.8 | ||
| 20260503232921 | 0 | 0.0 | 0.0 | 0.00 | 0.00 | 0.00 | 1013.7 | ||
| 20260503232346 | 0 | 0.0 | 0.0 | 0.00 | 0.00 | 0.00 | 1013.7 | ||
| 20260503231853 | 0 | 0.0 | 0.0 | 0.00 | 0.00 | 0.00 | 1013.7 | ||
| 20260503231344 | 0 | 0.0 | 0.0 | 0.00 | 0.00 | 0.00 | 1013.7 | ||
| 20260503230918 | 0 | 0.0 | 0.0 | 0.00 | 0.00 | 0.00 | 1013.8 | ||
| 20260503230409 | 0 | 0.0 | 0.0 | 0.00 | 0.00 | 0.00 | 1013.7 | ||
| 20260503225851 | 0 | 0.0 | 0.0 | 0.00 | 0.00 | 0.00 | 1013.7 | ||
| 20260503225340 | 0 | 0.0 | 0.0 | 0.00 | 0.00 | 0.00 | 1013.7 | ||
| 20260503224851 | 0 | 0.0 | 0.0 | 0.00 | 0.00 | 0.00 | 1013.7 | ||
| 20260503223847 | 0 | 0.0 | 0.0 | 0.00 | 0.00 | 0.00 | 1013.7 | ||
| 20260503223358 | 0 | 0.0 | 0.0 | 0.00 | 0.00 | 0.00 | 1013.6 | ||
| 20260503222843 | 0 | 0.0 | 0.0 | 0.00 | 0.00 | 0.00 | 1013.6 | ||
| 20260503222354 | 0 | 0.0 | 0.0 | 0.00 | 0.00 | 0.00 | 1013.6 | ||
| 20260503221902 | 0 | 0.0 | 0.0 | 0.00 | 0.00 | 0.00 | 1013.6 | ||
| 20260503221410 | 0 | 0.0 | 0.0 | 0.00 | 0.00 | 0.00 | 1013.6 | ||
| 20260503220837 | 62 | 5 | 5.0 | 12.0 | 0.00 | 0.00 | 0.00 | 33 | 1013.6 |
| 20260503220351 | 62 | 5 | 5.0 | 12.0 | 0.00 | 0.00 | 0.00 | 33 | 1013.6 |
| 20260503215838 | 62 | 5 | 5.0 | 11.0 | 0.00 | 0.00 | 0.00 | 32 | 1013.6 |
| 20260503215348 | 62 | 5 | 2.0 | 8.0 | 0.00 | 0.00 | 0.00 | 34 | 1013.7 |
| 20260503214856 | 62 | 5 | 2.0 | 7.0 | 0.00 | 0.00 | 0.00 | 34 | 1013.6 |
| 20260503214407 | 62 | 5 | 5.0 | 10.0 | 0.00 | 0.00 | 0.00 | 33 | 1013.7 |
| 20260503213838 | 62 | 5 | 5.0 | 10.0 | 0.00 | 0.00 | 0.00 | 33 | 1013.7 |
| 20260503213348 | 62 | 5 | 4.0 | 9.0 | 0.00 | 0.00 | 0.00 | 33 | 1013.7 |
| 20260503212853 | 62 | 5 | 3.0 | 9.0 | 0.00 | 0.00 | 0.00 | 34 | 1013.7 |
| 20260503212341 | 62 | 5 | 1.0 | 9.0 | 0.00 | 0.00 | 0.00 | 34 | 1013.6 |
| 20260503211852 | 62 | 5 | 4.0 | 17.0 | 0.00 | 0.00 | 0.00 | 34 | 1013.6 |
| 20260503211339 | 62 | 5 | 5.0 | 17.0 | 0.00 | 0.00 | 0.00 | 33 | 1013.5 |
| 20260503210910 | 62 | 360 | 5.0 | 13.0 | 0.00 | 0.00 | 0.00 | 33 | 1013.6 |
| 20260503210340 | 63 | 5 | 6.0 | 13.0 | 0.00 | 0.00 | 0.00 | 32 | 1013.7 |
| 20260503205847 | 63 | 5 | 4.0 | 15.0 | 0.00 | 0.00 | 0.00 | 32 | 1013.5 |
| 20260503205357 | 63 | 5 | 4.0 | 15.0 | 0.00 | 0.00 | 0.00 | 33 | 1013.5 |
| 20260503204846 | 63 | 5 | 2.0 | 10.0 | 0.00 | 0.00 | 0.00 | 34 | 1013.4 |
| 20260503204415 | 62 | 5 | 3.0 | 10.0 | 0.00 | 0.00 | 0.00 | 33 | 1013.6 |
| 20260503203859 | 62 | 5 | 3.0 | 10.0 | 0.00 | 0.00 | 0.00 | 35 | 1013.6 |
| 20260503203347 | 61 | 5 | 3.0 | 12.0 | 0.00 | 0.00 | 0.00 | 34 | 1013.5 |
| 20260503202854 | 61 | 5 | 1.0 | 8.0 | 0.00 | 0.00 | 0.00 | 36 | 1013.6 |
| 20260503202401 | 61 | 5 | 2.0 | 15.0 | 0.00 | 0.00 | 0.00 | 34 | 1013.6 |